Regional Weather Roundup
Issued by NWS Cleveland, OH

Home | Current Version | Previous Version | Text Only | Print | Product List | Glossary On
Versions: 1 2 3 4 5 6 7 8 9 10 11 12 13 14 15 16 17 18 19 20 21 22 23 24 25 26 27 28 29 30 31 32 33 34 35 36 37 38 39 40 41 42 43 44 45 46 47 48 49 50
000
ASUS41 KCLE 260202
RWRCLE
OHIO REGIONAL WEATHER ROUNDUP
NATIONAL WEATHER SERVICE CLEVELAND, OH
1000 PM EDT SAT OCT 25 2014

NOTE: "FAIR" INDICATES FEW OR NO CLOUDS BELOW 12,000 FEET WITH NO
SIGNIFICANT WEATHER AND/OR OBSTRUCTIONS TO VISIBILITY.

OHZ001>008-015>018-024>027-034-035-043-044-260300-
   NORTHWEST OHIO

CITY           SKY/WX    TMP DP  RH WIND       PRES   REMARKS
DEFIANCE       CLEAR     57  35  43 W3        29.87R
FINDLAY        CLEAR     52  34  50 W8        29.86R
TOLEDO EXPRESS CLEAR     53  32  44 W9        29.84R
TOLEDO EXEC    CLEAR     52  32  46 W8        29.85R
LIMA           CLEAR     55  44  66 W7        29.88R
$$

OHZ009>014-019>023-028>033-038-089-260300-
   NORTHEAST OHIO

CITY           SKY/WX    TMP DP  RH WIND       PRES   REMARKS
CLE-HOPKINS    CLEAR     59  36  42 W17       29.81R
CLE-LAKEFRONT  CLEAR     60  42  51 W24G36    29.78R
CUY CO. ARPT   CLEAR     61  43  51 NW17G29   29.78R
LORAIN-ELYRIA  LGT RAIN  58  33  39 NW14      29.82R
ASHTABULA      CLEAR     59  38  45 NW13G26   29.75R
AKRON-CANTON   CLEAR     60  38  43 W14       29.80R
WOOSTER        LGT RAIN  60  35  39 NW17G25   29.83R
MANSFIELD      CLEAR     57  36  45 W9        29.86R
YOUNGSTOWN     CLEAR     60  41  49 W13       29.75R
$$

OHZ042-051>053-060>062-070>072-077>081-260300-
  SOUTHWEST OHIO

CITY           SKY/WX    TMP DP  RH WIND       PRES   REMARKS
CINC-COVINGTON PTCLDY    66  50  56 W9        29.92S
CINC-LUNKEN    CLEAR     65  52  62 SW10      29.91S
HAMILTON       CLEAR     62  51  67 W5        29.91R
DAYTON         CLEAR     60  46  59 W9        29.90S
WRIGHT-PAT AFB CLEAR     52  46  82 SW3       29.89R
DAYTON GENERAL CLEAR     63  49  60 W5        29.89S
WILMINGTON     CLEAR     62  50  64 W7        29.89R
$$

OHZ036-037-039>041-045>050-054>059-063>069-073>076-082>088-260300-
  CENTRAL AND SOUTHEAST OHIO

CITY           SKY/WX    TMP DP  RH WIND       PRES   REMARKS
COLUMBUS       CLEAR     60  41  49 W10       29.85S
OSU AIRPORT    CLEAR     59  43  55 W8        29.86S
BOLTON FIELD   CLEAR     59  45  59 NW7       29.87S
RICKENBACK AFB NOT AVBL
NEWARK         CLEAR     63  39  41 NW13      29.85R
MARION         CLEAR     55  36  48 NW6       29.87R
LANCASTER      CLEAR     62  49  62 W5        29.87R
ZANESVILLE     CLEAR     61  48  62 W8        29.84R
NEW PHILLY     CLEAR     63  38  39 W13G20    29.82R
$$



USA.gov is the U.S. government's official web portal to all federal, state and local government web resources and services.